THORAD DELTA 1 DEB, 8185

Orbit data source: Space-Track

THORAD DELTA 1 DEB, 8185 is space debris in SSO originally from a launch on Fri, 15 Nov 1974 UTC launched from the Air Force Western Test Range (AFWTR). Debris objects in space refer to the collection of defunct objects orbiting the Earth. Examples of debris include non-operational satellites, rocket bodies, and fragments generated from explosions, collisions, or faulty payload assembly.

Loading next visibility...
Identifier
8185, 1974-089BB
Orbit
SSO
Country
Flag of USUS
Related business
Manufacturer
Unknown
Mission
Spacecraft
Bus & Motor
Unknown
Mass
Unknown
Launch date (UTC)
1974-11-15 (51 years ago)
Launch vehicle
Unknown
Launch site
Air Force Western Test Range (AFWTR)
Object type
Payload
Rocket body
Debris
Shape & HBR
Unknown shape, 0.4 m
Radar Cross Section
Small (<0.1 m²)

Expand to show TLE details & history
Last TLE update: 1 day ago

TLE from 1 day ago
0 THORAD DELTA 1 DEB
1  8185U 74089BB  25338.54837601  .00000028  00000-0  51874-3 0  9993
2  8185 101.5322 263.2029 0068117 164.3719   9.1559 12.40494940310624
Epoch: 2025-12-04T13:09Z
TLE epoch observation values (Epoch: 2025-12-04T13:09:39.687Z)
Latitude
6.14829°
Longitude
173.43752°
Altitude
1,453.48 km
Speed
7.16 km/s
True Right ascension
05h 37m 49s
True Declination
6° 06' 54"
Sunlit
Object was in full shadow at epoch
Visualization orbit readout
Latitude
Unknown
Longitude
Unknown
Altitude
Unknown
Speed
Unknown
Apparent Right ascension
Unknown
Apparent Declination
Unknown
Sunlit
N/A
Visualization observer readout
Local Sidereal Time
12:56:31
Azimuth
Unknown
Elevation
Unknown
Doppler factor
Unknown
Orbital elements
Apogee altitude
1,555.73 km
Perigee altitude
1,448.375 km
Semi-major axis
7,880.189 km
Eccentricity
0.00681
Inclination
101.5322°
RAAN
263.2029°
Arg. of periapsis
164.3719°
True anomaly
9.28116°
Mean anomaly
9.1559°
Eccentric anomaly
9.21842°
Mean motion
3.10269 °/min
Orbital period
116.03 mins
BSTAR
0.00051874
Loading maneuver chart data...
Computing Atmospheric mass density...

Documentation

Showing up to 5 results
|